Regional Weather Roundup
Issued by NWS Midland/Odessa, TX

Skip options and go directly to product.
Home | Oldest Version | Previous Version | Current Version | All | Graphics & Text | Save Text | Print | Product List | Glossary On

Skip product version selection by date and time.   
381
ASUS44 KMAF 210010
RWRMAF
MIDLAND AREA WEATHER ROUNDUP
NATIONAL WEATHER SERVICE MIDLAND TX
700 PM CDT WED AUG 20 2014

...IN SOUTHWEST TEXAS AND SOUTHEAST NEW MEXICO...

CITY           SKY/WX    TMP DP  RH WIND       PRES   REMARKS
ALPINE         CLOUDY    71  65  80 SE16G30   30.08R THUNDER
ANDREWS        FAIR      88  62  42 SE15      29.91R
ARTESIA        SUNNY     91  50  24 SW8       29.87S
BIG SPRING     MOSUNNY   94  62  33 SE20G26   29.90R
CARLSBAD       CLOUDY    97  50  20 SE12G17   29.85R
DRYDEN           N/A     90  64  42 SW3       29.91R
FORT STOCKTON  CLOUDY    76  62  62 S18G24    29.92F
GUAD PASS      SUNNY     84  49  29 SW21G31   30.06R
HOBBS          SUNNY     93  50  22 S13G18    29.91R
MARFA          PTSUNNY   84  61  45 S7        30.07S
MIDLAND AIRPK  PTSUNNY   93  59  31 S14       29.89S THUNDER
MIDLAND INTL   TSTM      75  66  73 SW10G41   29.92R VSB 3/4
ODESSA         LGT RAIN  78  67  68 S9        29.93S
PECOS          CLOUDY    86  62  44 S23       29.88R HAZE
PRESIDIO       FAIR      92  61  35 SE13      29.88S
SEMINOLE       PTSUNNY   92  58  31 S18       29.91R
SNYDER         MOSUNNY   92  64  38 SE21      29.88S
WINK           PTSUNNY   91  61  36 S29G38    29.87R
$$
...OTHER STATIONS IN TEXAS...

CITY           SKY/WX    TMP DP  RH WIND       PRES   REMARKS
ABILENE        SUNNY     94  60  32 S14       29.89R
AMARILLO       PTSUNNY   91  57  31 S21G29    29.90R
AUSTIN         MOSUNNY   97  65  34 S20G26    29.86S
BROWNSVILLE    MOSUNNY   89  77  67 SE20G30   29.90R HX 101
CORPUS CHRISTI PTSUNNY   89  75  63 SE26G36   29.90R
DALLAS FTW     MOSUNNY   95  65  37 S13       29.88S
DEL RIO        MOSUNNY   98  61  29 SE12G20   29.82R
EL PASO        MOSUNNY   91  50  24 W10G24    29.93S
HOUSTON INT    CLOUDY    83  74  74 SE9       29.96S
LUBBOCK        PTSUNNY   89  60  37 S15       29.90S
SAN ANGELO     SUNNY     93  60  33 S16G23    29.89R
SAN ANTONIO    MOSUNNY   96  68  39 SE22G29   29.88R HX 101
WACO           MOSUNNY   96  64  34 SE17G23   29.87F
WICHITA FALLS  NOT AVBL
$$
...OTHER LOCATIONS IN NEW MEXICO...

CITY           SKY/WX    TMP DP  RH WIND       PRES   REMARKS
ALAMAGORDO     SUNNY     90  50  25 W8G17     29.94S
ALBUQUERQUE    MOSUNNY   85  43  22 W7        30.03S
CANNON AFB     NOT AVBL
CLOVIS           N/A     84  59  42 SE7       29.96R
HOLLOMAN AFB   SUNNY     90  52  27 W8        29.92F
ROSWELL        MOSUNNY   91  59  33 NW16G25   29.87S
RUIDOSO        MOSUNNY   68  55  64 CALM      30.16F
SANTA FE       PTSUNNY   83  41  22 SW20G26   30.06S
TRUTH OR CONSE MOSUNNY   86  44  23 NE6       29.98F
TUCUMCARI      MOSUNNY   94  50  22 SW15      29.86F
$$

USA.gov is the U.S. government's official web portal to all federal, state and local government web resources and services.